[[{"header":{"parameterUnit":"m.s-1","parameterCategory":1,"la1":30.2991,"la2":30.254,"lo1":-89.0895,"lo2":-89.0444,"dy":0.0017,"dx":0.0017,"nx":28,"ny":28,"refTime":"2025-07-23T09:00:00:Z","depth":0,"parameterNumber":2,"parameterNumberName":"U-component_of_WINDS"},"data":[0,0,0,0,0,0,0,0,0,0,0,0,0,0,0,0,0,0,0,0,0,0,0,0,0,0,0,0,0,0,0,0,0,0,0,0,0,0,0,0,0,0,0,0,0,0,0,0,0,0,0,0,0,0,0,0,0,0,2.3801,2.3802,0,2.3905,2.3906,2.3908,2.3847,2.3844,2.3841,2.3839,2.395,2.3956,2.3961,0,0,0,0,0,0,0,0,0,0,0,0,0,2.3553,2.3557,2.38,2.3802,2.3803,2.3905,2.3906,2.3908,2.3848,2.3844,2.3841,2.3837,2.3948,2.3955,2.3962,0,0,0,0,0,0,0,0,0,0,0,0,0,2.3659,2.3559,2.38,2.3785,2.3785,2.3905,2.3907,2.3908,2.3849,2.3844,2.384,2.3836,2.3946,2.3954,2.3963,2.4104,0,0,2.3989,2.3993,0,0,0,0,0,0,0,0,2.3653,2.3668,2.3786,2.3787,2.3786,2.3859,2.386,2.3974,2.385,2.3825,2.3839,2.3833,2.3924,2.3934,2.3963,2.411,2.4114,2.399,2.3995,2.3999,2.4001,0,0,0,0,0,0,0,2.3646,2.3664,2.3842,2.3788,2.3788,2.3775,2.3785,2.3881,2.3898,2.3826,2.3822,2.3835,2.3923,2.3955,2.3965,2.4116,2.399,2.3997,2.4002,2.4006,2.4386,2.439,0,0,0,0,0,0,2.3639,2.3658,2.3839,2.3845,2.3707,2.3783,2.3794,2.384,2.3897,2.3901,2.3839,2.3832,2.3943,2.3955,2.3969,2.414,2.3999,2.4007,2.4012,2.4381,2.4387,2.4392,0,0,0,0,0,0,2.3634,2.3656,2.3834,2.375,2.3772,2.3792,2.3844,2.3844,2.3877,2.3906,2.3909,2.3869,2.394,2.3957,2.4071,2.4143,2.4011,2.4018,2.4375,2.4383,2.4389,2.4482,0,0,0,0,0,0,2.3627,2.3654,2.3707,2.3752,2.3777,2.3934,2.3848,2.385,2.3891,2.3883,2.3935,2.3939,2.3937,2.4059,2.408,2.4152,2.4025,2.4369,2.4378,2.4387,2.4473,2.4492,2.4508,0,0,0,0,0,2.3618,2.373,2.371,2.3733,2.3843,2.3938,2.3953,2.3947,2.3897,2.3951,2.397,2.3937,2.4131,2.4071,2.4094,2.417,2.4364,2.4376,2.4386,2.4465,2.4488,2.4508,0,0,0,0,0,0,2.3695,2.3736,2.3714,2.3843,2.3888,2.3928,2.3996,2.3972,2.4032,2.4023,2.4015,2.4027,2.4146,2.4169,2.4102,2.4311,2.424,2.4256,2.4292,2.4314,2.4331,2.4324,2.4032,0,0,0,0,0,2.3726,2.3798,2.3831,2.3941,2.3965,2.3977,2.4018,2.401,2.4056,2.4075,2.4102,2.4149,2.4221,2.4268,2.4336,2.4475,2.4487,2.4539,2.4557,2.4571,2.4586,2.4663,2.4687,2.4429,2.4428,2.4428,0,0,2.3793,2.3824,2.387,2.3958,2.3991,2.4068,2.3993,2.4077,2.4134,2.4088,2.4198,2.4219,2.4272,2.44,2.4457,2.4423,2.4659,2.4585,2.4596,2.4604,2.4677,2.4701,2.4723,2.4436,2.4435,2.4434,0,0,2.3953,2.3983,2.408,2.4114,2.4165,2.4173,2.4196,2.424,2.4252,2.4362,2.4329,2.4397,2.452,2.4559,2.4596,2.4771,2.4744,2.4793,2.4886,2.4961,2.4982,2.5,2.5064,2.5087,2.4807,2.4808,2.4808,0,2.403,2.4143,2.4133,2.4219,2.4259,2.4219,2.4318,2.4352,2.4424,2.4453,2.4412,2.4566,2.4599,2.4736,2.4779,2.4808,2.4836,2.4788,2.4979,2.4997,2.5014,2.5075,2.5099,2.4813,2.4813,2.4812,2.4812,0,2.4236,2.4314,2.4386,2.4455,2.4502,2.4595,2.46,2.465,2.4637,2.4649,2.4762,2.4799,2.4874,2.4906,2.4895,2.5042,2.5019,2.4979,2.4908,2.5045,2.5102,2.5125,2.4822,2.482,2.4818,2.4816,0,0,2.4449,2.451,2.4537,2.4568,2.4621,2.4682,2.4773,2.4845,2.4889,2.4939,2.5016,2.5121,2.5084,2.5125,2.5119,2.5184,2.5323,2.5136,2.5138,2.5171,2.549,2.5521,2.5548,2.5304,2.5309,2.5312,2.5486,0,2.4615,2.4772,2.4765,2.4913,2.4986,2.4949,2.5028,2.5071,2.5084,2.515,2.5165,2.524,2.5185,2.521,2.5273,2.5293,2.5387,2.528,2.5378,2.5382,2.5368,2.5578,2.5611,2.5773,2.5508,2.5512,2.5515,0,2.4829,2.4885,2.504,2.5083,2.5113,2.5185,2.5251,2.5313,2.536,2.5366,2.5411,2.5394,2.5488,2.5412,2.5542,2.547,2.5509,2.5525,2.5531,2.5542,2.5458,2.5596,2.5824,2.5849,2.555,2.5547,2.5544,0,2.4972,2.5086,2.5194,2.5221,2.5273,2.5324,2.5349,2.5391,2.5435,2.5493,2.5522,2.559,2.5628,2.5682,2.5684,2.5629,2.5817,2.5741,2.5826,2.5826,2.5868,2.5866,2.6108,2.5891,2.589,2.589,2.5889,0,2.5159,2.5255,2.5258,2.5325,2.5433,2.5424,2.5532,2.5551,2.5589,2.566,2.5632,2.5699,2.5697,2.5766,2.5768,2.5877,2.5894,2.5902,2.5902,2.5906,2.5905,2.5934,2.5923,2.5896,2.5895,2.5894,2.5893,0,2.5337,2.5343,2.5458,2.5497,2.5509,2.5587,2.5621,2.5686,2.5696,2.5786,2.5807,2.5824,2.5904,2.5911,2.6003,2.6005,2.6137,2.6123,2.6121,2.6119,2.6204,2.6197,2.6474,2.6511,2.6268,2.627,2.6272,0,2.5457,2.553,2.5577,2.5622,2.5649,2.5721,2.5765,2.576,2.5807,2.5867,2.5924,2.6001,2.6062,2.6191,2.6213,2.6284,2.6274,2.6366,2.6285,2.6287,2.6278,2.6274,2.6282,2.6383,2.6386,2.6388,2.639,0,2.567,2.5669,2.5733,2.5799,2.5852,2.5903,2.5951,2.599,2.5991,2.6046,2.6126,2.6173,2.6267,2.6345,2.6415,2.6441,2.6417,2.6415,2.6438,2.6444,2.644,2.6446,2.6166,2.6409,2.6407,2.6406,2.6405,2.6404,2.5824,2.5888,2.5931,2.6004,2.6039,2.6084,2.6147,2.6164,2.6231,2.6306,2.6299,2.6388,2.6435,2.6525,2.6557,2.6629,2.6598,2.6632,2.6641,2.665,2.6659,2.6427,2.6641,2.664,2.664,2.6639,2.6639,0,2.6038,2.6063,2.6129,2.6197,2.6255,2.6224,2.6276,2.6326,2.6405,2.6449,2.651,2.6603,2.6677,2.6705,2.6778,2.683,2.6821,2.685,2.6847,2.6854,2.6682,2.6655,2.6856,2.6856,2.6856,2.6856,2.6856,2.6856,2.6156,2.6262,2.6266,2.6391,2.6416,2.6502,2.6535,2.6577,2.6612,2.6717,2.6779,2.6795,2.6833,2.6909,2.6977,2.6983,2.7012,2.7047,2.7048,2.6888,2.6866,2.6845,2.682,2.7052,2.7053,2.7215,2.7216,2.7217]},{"header":{"parameterUnit":"m.s-1","parameterCategory":1,"la1":30.2991,"la2":30.254,"lo1":-89.0895,"lo2":-89.0444,"dy":0.0017,"dx":0.0017,"nx":28,"ny":28,"refTime":"2025-07-23T09:00:00:Z","depth":0,"parameterNumber":3,"parameterNumberName":"V-component_of_WINDS"},"data":[0,0,0,0,0,0,0,0,0,0,0,0,0,0,0,0,0,0,0,0,0,0,0,0,0,0,0,0,0,0,0,0,0,0,0,0,0,0,0,0,0,0,0,0,0,0,0,0,0,0,0,0,0,0,0,0,0,0,-0.8191,-0.8191,0,-0.8213,-0.8214,-0.8214,-0.8257,-0.8258,-0.8259,-0.8259,-0.8281,-0.8281,-0.8281,0,0,0,0,0,0,0,0,0,0,0,0,0,-0.8184,-0.8184,-0.8191,-0.8191,-0.8191,-0.8213,-0.8214,-0.8214,-0.8257,-0.8258,-0.8259,-0.826,-0.8281,-0.8281,-0.8281,0,0,0,0,0,0,0,0,0,0,0,0,0,-0.8195,-0.8184,-0.8191,-0.8215,-0.8218,-0.8213,-0.8214,-0.8214,-0.8257,-0.8258,-0.8259,-0.826,-0.8281,-0.8281,-0.8281,-0.8253,0,0,-0.828,-0.828,0,0,0,0,0,0,0,0,-0.8194,-0.8195,-0.8211,-0.8214,-0.8216,-0.8234,-0.8219,-0.8227,-0.8256,-0.8242,-0.8259,-0.8261,-0.8264,-0.8265,-0.8267,-0.8254,-0.8255,-0.828,-0.8279,-0.8279,-0.8279,0,0,0,0,0,0,0,-0.8193,-0.8194,-0.82,-0.8212,-0.8215,-0.8225,-0.8228,-0.8221,-0.8246,-0.8243,-0.8246,-0.8249,-0.8266,-0.8267,-0.8268,-0.8256,-0.828,-0.8279,-0.8279,-0.8279,-0.8222,-0.8221,0,0,0,0,0,0,-0.8189,-0.8193,-0.8199,-0.82,-0.8208,-0.8224,-0.8227,-0.8227,-0.8246,-0.825,-0.8247,-0.825,-0.8267,-0.8268,-0.8269,-0.8237,-0.8279,-0.8279,-0.8279,-0.8223,-0.8222,-0.822,0,0,0,0,0,0,-0.8189,-0.8189,-0.8198,-0.8198,-0.82,-0.8223,-0.8222,-0.8227,-0.8228,-0.8249,-0.8254,-0.8244,-0.8268,-0.8269,-0.8257,-0.8239,-0.8279,-0.8279,-0.8225,-0.8223,-0.8221,-0.8175,0,0,0,0,0,0,-0.8188,-0.8189,-0.8179,-0.8197,-0.8199,-0.8186,-0.8221,-0.8226,-0.8227,-0.8232,-0.8247,-0.8251,-0.8269,-0.8257,-0.8257,-0.8239,-0.8278,-0.8226,-0.8224,-0.8221,-0.8178,-0.8171,-0.8166,0,0,0,0,0,-0.8188,-0.8164,-0.8178,-0.8178,-0.8187,-0.8185,-0.8186,-0.8208,-0.8226,-0.8216,-0.8229,-0.825,-0.8241,-0.8256,-0.8255,-0.8237,-0.8228,-0.8225,-0.8222,-0.8181,-0.8173,-0.8166,0,0,0,0,0,0,-0.8142,-0.8167,-0.8182,-0.8164,-0.8172,-0.8192,-0.818,-0.8199,-0.8201,-0.8205,-0.8232,-0.8235,-0.8219,-0.8227,-0.8243,-0.8212,-0.8238,-0.8235,-0.8207,-0.8199,-0.8193,-0.8191,-0.8278,0,0,0,0,0,-0.8131,-0.8127,-0.8149,-0.8131,-0.8134,-0.8156,-0.8156,-0.8172,-0.8181,-0.8184,-0.8197,-0.8205,-0.8204,-0.8202,-0.8202,-0.818,-0.8184,-0.8168,-0.8162,-0.8156,-0.8153,-0.8141,-0.8134,-0.821,-0.821,-0.821,0,0,-0.8105,-0.8119,-0.8114,-0.8122,-0.813,-0.8125,-0.8159,-0.8152,-0.8148,-0.8183,-0.8172,-0.8182,-0.8193,-0.8175,-0.8168,-0.8181,-0.8133,-0.8153,-0.8148,-0.8148,-0.8137,-0.813,-0.8123,-0.8208,-0.8209,-0.8209,0,0,-0.8057,-0.8067,-0.8053,-0.806,-0.8072,-0.8087,-0.8084,-0.8101,-0.8109,-0.8099,-0.8125,-0.8121,-0.8119,-0.8125,-0.8128,-0.8083,-0.8102,-0.8082,-0.805,-0.8038,-0.8032,-0.8027,-0.8009,-0.8003,-0.8079,-0.8079,-0.8079,0,-0.8024,-0.8017,-0.8043,-0.8034,-0.8037,-0.8069,-0.8055,-0.8061,-0.8072,-0.8073,-0.8088,-0.8086,-0.8095,-0.8079,-0.8068,-0.807,-0.8066,-0.8079,-0.8031,-0.8026,-0.8021,-0.8005,-0.7999,-0.8076,-0.8076,-0.8077,-0.8077,0,-0.7976,-0.7971,-0.7958,-0.7969,-0.797,-0.7958,-0.7982,-0.798,-0.7996,-0.801,-0.7999,-0.8012,-0.8015,-0.8013,-0.8028,-0.7999,-0.8007,-0.8026,-0.8052,-0.8011,-0.7996,-0.799,-0.8072,-0.8073,-0.8074,-0.8075,0,0,-0.7897,-0.7923,-0.7917,-0.7922,-0.7939,-0.7935,-0.7926,-0.7929,-0.7927,-0.7934,-0.7926,-0.7923,-0.7942,-0.7945,-0.7962,-0.7952,-0.7914,-0.7973,-0.7973,-0.796,-0.7881,-0.7865,-0.7858,-0.7928,-0.7927,-0.7926,-0.788,0,-0.7851,-0.7836,-0.7859,-0.7838,-0.7834,-0.7865,-0.7857,-0.7865,-0.7878,-0.7876,-0.7891,-0.7888,-0.7913,-0.7915,-0.7906,-0.792,-0.7898,-0.7924,-0.7919,-0.7919,-0.7914,-0.785,-0.7833,-0.7789,-0.7875,-0.7874,-0.7873,0,-0.7794,-0.7799,-0.7778,-0.7796,-0.7795,-0.7787,-0.7792,-0.779,-0.7801,-0.7811,-0.7815,-0.7835,-0.7827,-0.7854,-0.7842,-0.7859,-0.7859,-0.7865,-0.7864,-0.7863,-0.7892,-0.7846,-0.7776,-0.7769,-0.7864,-0.7865,-0.7866,0,-0.7738,-0.7739,-0.7726,-0.773,-0.7751,-0.7744,-0.7752,-0.7764,-0.7765,-0.777,-0.7771,-0.7774,-0.7776,-0.7778,-0.7799,-0.7817,-0.7784,-0.7813,-0.7791,-0.779,-0.7781,-0.7781,-0.7708,-0.7784,-0.7784,-0.7784,-0.7784,0,-0.7683,-0.7668,-0.7701,-0.7693,-0.7678,-0.7705,-0.7689,-0.77,-0.7711,-0.7706,-0.7734,-0.7728,-0.7757,-0.7754,-0.7771,-0.7758,-0.7759,-0.7766,-0.777,-0.7763,-0.7761,-0.7761,-0.7764,-0.7782,-0.7783,-0.7783,-0.7783,0,-0.7616,-0.7637,-0.7626,-0.7647,-0.7652,-0.7639,-0.7657,-0.765,-0.7666,-0.7658,-0.7658,-0.7682,-0.768,-0.7702,-0.7705,-0.7716,-0.7695,-0.7705,-0.7691,-0.7694,-0.767,-0.7672,-0.7594,-0.7584,-0.7667,-0.7666,-0.7665,0,-0.7578,-0.7568,-0.7588,-0.7586,-0.7593,-0.7591,-0.7592,-0.7618,-0.7618,-0.763,-0.7622,-0.7623,-0.7625,-0.7621,-0.7638,-0.764,-0.765,-0.7622,-0.765,-0.7643,-0.7648,-0.7647,-0.7646,-0.7616,-0.7615,-0.7614,-0.7613,0,-0.7509,-0.752,-0.7521,-0.7525,-0.7526,-0.7531,-0.7537,-0.7535,-0.7564,-0.7562,-0.7561,-0.7563,-0.7566,-0.7566,-0.7571,-0.758,-0.7601,-0.7605,-0.76,-0.7591,-0.7582,-0.7585,-0.7673,-0.7606,-0.7607,-0.7607,-0.7608,-0.7608,-0.7455,-0.7447,-0.746,-0.7459,-0.7467,-0.7473,-0.7468,-0.7483,-0.7482,-0.7487,-0.7503,-0.7499,-0.751,-0.752,-0.7527,-0.7524,-0.7537,-0.753,-0.7528,-0.7525,-0.752,-0.7584,-0.7525,-0.7525,-0.7526,-0.7526,-0.7526,0,-0.7386,-0.7396,-0.7396,-0.7404,-0.7404,-0.7425,-0.7434,-0.7432,-0.7428,-0.7437,-0.7439,-0.7438,-0.7438,-0.7456,-0.7459,-0.7453,-0.7462,-0.7452,-0.7452,-0.7454,-0.7509,-0.7512,-0.7444,-0.7445,-0.7445,-0.7445,-0.7445,-0.7445,-0.7349,-0.7337,-0.735,-0.7342,-0.7353,-0.7349,-0.7352,-0.7357,-0.7365,-0.7362,-0.7363,-0.7375,-0.7387,-0.7391,-0.7392,-0.7398,-0.7397,-0.7383,-0.7391,-0.7442,-0.745,-0.7457,-0.7461,-0.7383,-0.7383,-0.7336,-0.7336,-0.7335]}]]